Time,TemperatureF,DewpointF,PressureIn,WindDirection,WindDirectionDegrees,WindSpeedMPH,WindSpeedGustMPH,Humidity,HourlyPrecipIn,Conditions,Clouds,dailyrainin,SoftwareType,DateUTC
2013-08-31 00:02:00,83.3,69.4,29.95,South,180,1.1,2.9,63,0.00,,,0.00,WUHU216HW,2013-08-31 05:02:00,
2013-08-31 00:07:00,83.3,69.8,29.95,SSE,158,1.1,3.4,64,0.00,,,0.00,WUHU216HW,2013-08-31 05:07:00,
2013-08-31 00:12:00,83.2,69.7,29.95,South,180,2.2,3.4,64,0.00,,,0.00,WUHU216HW,2013-08-31 05:12:00,
2013-08-31 00:17:00,83.2,69.7,29.95,South,180,2.0,3.8,64,0.00,,,0.00,WUHU216HW,2013-08-31 05:17:00,
2013-08-31 00:22:00,83.2,69.7,29.95,SSW,203,1.3,3.8,64,0.00,,,0.00,WUHU216HW,2013-08-31 05:22:00,
2013-08-31 00:27:00,83.0,69.9,29.95,SW,225,1.1,2.5,65,0.00,,,0.00,WUHU216HW,2013-08-31 05:27:00,
2013-08-31 00:32:00,83.0,69.9,29.95,South,180,1.1,2.7,65,0.00,,,0.00,WUHU216HW,2013-08-31 05:32:00,
2013-08-31 00:37:00,82.8,69.8,29.95,South,180,1.1,4.7,65,0.00,,,0.00,WUHU216HW,2013-08-31 05:37:00,
2013-08-31 00:42:00,82.8,69.8,29.95,SSW,203,0.0,4.7,65,0.00,,,0.00,WUHU216HW,2013-08-31 05:42:00,
2013-08-31 00:47:00,82.6,69.6,29.95,WSW,248,1.8,3.4,65,0.00,,,0.00,WUHU216HW,2013-08-31 05:47:00,
2013-08-31 00:52:00,82.4,68.9,29.96,SSW,203,1.6,2.7,64,0.00,,,0.00,WUHU216HW,2013-08-31 05:52:00,
2013-08-31 00:57:00,82.4,69.4,29.95,WSW,248,1.1,2.7,65,0.00,,,0.00,WUHU216HW,2013-08-31 05:57:00,
2013-08-31 01:02:00,82.4,69.4,29.95,SSW,203,1.6,3.4,65,0.00,,,0.00,WUHU216HW,2013-08-31 06:02:00,
2013-08-31 01:07:00,82.4,69.4,29.95,SSE,158,1.6,4.0,65,0.00,,,0.00,WUHU216HW,2013-08-31 06:07:00,
2013-08-31 01:12:00,82.3,69.2,29.95,SSW,203,1.1,4.0,65,0.00,,,0.00,WUHU216HW,2013-08-31 06:12:00,
2013-08-31 01:17:00,82.3,69.2,29.95,SSE,158,1.8,2.9,65,0.00,,,0.00,WUHU216HW,2013-08-31 06:17:00,
2013-08-31 01:22:00,82.1,69.0,29.95,South,180,0.9,2.5,65,0.00,,,0.00,WUHU216HW,2013-08-31 06:22:00,
2013-08-31 01:27:00,82.1,69.0,29.95,WSW,248,0.7,3.4,65,0.00,,,0.00,WUHU216HW,2013-08-31 06:27:00,
2013-08-31 01:32:00,81.9,69.4,29.95,SW,225,1.3,3.4,66,0.00,,,0.00,WUHU216HW,2013-08-31 06:32:00,
2013-08-31 01:37:00,81.9,69.4,29.95,SSE,158,2.0,2.5,66,0.00,,,0.00,WUHU216HW,2013-08-31 06:37:00,
2013-08-31 01:42:00,81.7,69.2,29.95,SSW,203,1.6,2.5,66,0.00,,,0.00,WUHU216HW,2013-08-31 06:42:00,
2013-08-31 01:47:00,81.7,69.2,29.95,SSE,158,2.5,2.5,66,0.00,,,0.00,WUHU216HW,2013-08-31 06:47:00,
2013-08-31 01:52:00,81.5,69.0,29.95,WSW,248,1.3,2.5,66,0.00,,,0.00,WUHU216HW,2013-08-31 06:52:00,
2013-08-31 01:57:00,81.5,69.0,29.94,SSW,203,2.0,3.4,66,0.00,,,0.00,WUHU216HW,2013-08-31 06:57:00,
2013-08-31 02:02:00,81.4,68.9,29.94,SSE,158,2.0,3.6,66,0.00,,,0.00,WUHU216HW,2013-08-31 07:02:00,
2013-08-31 02:07:00,81.4,68.9,29.94,WSW,248,2.9,3.6,66,0.00,,,0.00,WUHU216HW,2013-08-31 07:07:00,
2013-08-31 02:12:00,81.2,68.7,29.94,SW,225,1.3,3.4,66,0.00,,,0.00,WUHU216HW,2013-08-31 07:12:00,
2013-08-31 02:17:00,81.2,69.1,29.94,SSE,158,0.4,2.9,67,0.00,,,0.00,WUHU216HW,2013-08-31 07:17:00,
2013-08-31 02:22:00,81.0,69.0,29.94,SSW,203,1.1,2.7,67,0.00,,,0.00,WUHU216HW,2013-08-31 07:22:00,
2013-08-31 02:27:00,81.0,69.0,29.94,South,180,1.8,2.7,67,0.00,,,0.00,WUHU216HW,2013-08-31 07:27:00,
2013-08-31 02:32:00,81.0,69.0,29.94,SSE,158,0.9,2.2,67,0.00,,,0.00,WUHU216HW,2013-08-31 07:32:00,
2013-08-31 02:37:00,80.8,68.9,29.93,SW,225,0.7,2.2,67,0.00,,,0.00,WUHU216HW,2013-08-31 07:37:00,
2013-08-31 02:42:00,80.8,68.9,29.93,SSE,158,0.4,2.5,67,0.00,,,0.00,WUHU216HW,2013-08-31 07:42:00,
2013-08-31 02:47:00,80.6,68.7,29.93,SSW,203,2.0,2.5,67,0.00,,,0.00,WUHU216HW,2013-08-31 07:47:00,
2013-08-31 02:52:00,80.6,68.7,29.93,SSE,158,0.4,2.2,67,0.00,,,0.00,WUHU216HW,2013-08-31 07:52:00,
2013-08-31 02:57:00,80.5,68.9,29.93,SW,225,1.6,2.5,68,0.00,,,0.00,WUHU216HW,2013-08-31 07:57:00,
2013-08-31 03:02:00,80.5,68.9,29.93,SSE,158,2.5,2.5,68,0.00,,,0.00,WUHU216HW,2013-08-31 08:02:00,
2013-08-31 03:07:00,80.3,68.8,29.93,WSW,248,0.7,2.5,68,0.00,,,0.00,WUHU216HW,2013-08-31 08:07:00,
2013-08-31 03:12:00,80.3,68.8,29.93,ESE,113,0.4,2.5,68,0.00,,,0.00,WUHU216HW,2013-08-31 08:12:00,
2013-08-31 03:17:00,80.1,68.6,29.93,WNW,293,1.3,2.9,68,0.00,,,0.00,WUHU216HW,2013-08-31 08:17:00,
2013-08-31 03:22:00,80.1,68.6,29.92,SSE,158,2.5,2.9,68,0.00,,,0.00,WUHU216HW,2013-08-31 08:22:00,
2013-08-31 03:27:00,79.9,68.9,29.92,SSW,203,0.7,2.9,69,0.00,,,0.00,WUHU216HW,2013-08-31 08:27:00,
2013-08-31 03:32:00,79.9,68.9,29.92,South,180,0.4,2.7,69,0.00,,,0.00,WUHU216HW,2013-08-31 08:32:00,
2013-08-31 03:37:00,79.9,68.9,29.92,SSW,203,1.6,2.0,69,0.00,,,0.00,WUHU216HW,2013-08-31 08:37:00,
2013-08-31 03:42:00,79.9,68.9,29.92,SSE,158,2.0,2.0,69,0.00,,,0.00,WUHU216HW,2013-08-31 08:42:00,
2013-08-31 03:47:00,79.7,68.7,29.91,SSE,158,0.4,2.5,69,0.00,,,0.00,WUHU216HW,2013-08-31 08:47:00,
2013-08-31 03:52:00,79.7,68.7,29.92,South,180,1.1,2.5,69,0.00,,,0.00,WUHU216HW,2013-08-31 08:52:00,
2013-08-31 03:57:00,79.6,68.9,29.92,SE,135,2.0,2.5,70,0.00,,,0.00,WUHU216HW,2013-08-31 08:57:00,
2013-08-31 04:02:00,79.6,68.9,29.92,South,180,1.3,2.5,70,0.00,,,0.00,WUHU216HW,2013-08-31 09:02:00,
2013-08-31 04:07:00,79.4,68.8,29.92,SSE,158,0.4,1.8,70,0.00,,,0.00,WUHU216HW,2013-08-31 09:07:00,
2013-08-31 04:12:00,79.4,68.8,29.92,South,180,0.0,2.5,70,0.00,,,0.00,WUHU216HW,2013-08-31 09:12:00,
2013-08-31 04:17:00,79.2,68.6,29.92,SSE,158,0.9,2.5,70,0.00,,,0.00,WUHU216HW,2013-08-31 09:17:00,
2013-08-31 04:22:00,79.2,68.9,29.92,South,180,0.9,1.8,71,0.00,,,0.00,WUHU216HW,2013-08-31 09:22:00,
2013-08-31 04:27:00,79.0,68.8,29.92,South,180,1.1,1.6,71,0.00,,,0.00,WUHU216HW,2013-08-31 09:27:00,
2013-08-31 04:32:00,79.0,68.8,29.92,SSE,158,0.9,1.6,71,0.00,,,0.00,WUHU216HW,2013-08-31 09:32:00,
2013-08-31 04:37:00,78.8,68.6,29.92,SSE,158,1.1,1.6,71,0.00,,,0.00,WUHU216HW,2013-08-31 09:37:00,
2013-08-31 04:42:00,78.8,68.6,29.92,SSE,158,1.8,2.0,71,0.00,,,0.00,WUHU216HW,2013-08-31 09:42:00,
2013-08-31 04:47:00,78.8,68.6,29.92,South,180,1.1,2.2,71,0.00,,,0.00,WUHU216HW,2013-08-31 09:47:00,
2013-08-31 04:52:00,78.7,68.5,29.92,SSE,158,1.6,2.5,71,0.00,,,0.00,WUHU216HW,2013-08-31 09:52:00,
2013-08-31 04:57:00,78.7,68.5,29.92,South,180,0.9,2.9,71,0.00,,,0.00,WUHU216HW,2013-08-31 09:57:00,
2013-08-31 05:02:00,78.5,68.3,29.93,South,180,0.9,2.9,71,0.00,,,0.00,WUHU216HW,2013-08-31 10:02:00,
2013-08-31 05:07:00,78.5,68.3,29.93,SW,225,0.4,1.8,71,0.00,,,0.00,WUHU216HW,2013-08-31 10:07:00,
2013-08-31 05:12:00,78.5,68.3,29.93,West,270,1.3,1.8,71,0.00,,,0.00,WUHU216HW,2013-08-31 10:12:00,
2013-08-31 05:17:00,78.3,68.1,29.94,West,270,1.8,1.8,71,0.00,,,0.00,WUHU216HW,2013-08-31 10:17:00,
2013-08-31 05:22:00,78.3,68.5,29.94,WSW,248,1.6,1.8,72,0.00,,,0.00,WUHU216HW,2013-08-31 10:22:00,
2013-08-31 05:27:00,78.1,68.3,29.94,WSW,248,1.1,1.8,72,0.00,,,0.00,WUHU216HW,2013-08-31 10:27:00,
2013-08-31 05:32:00,78.1,68.3,29.94,WSW,248,1.8,2.2,72,0.00,,,0.00,WUHU216HW,2013-08-31 10:32:00,
2013-08-31 05:37:00,78.1,68.3,29.94,WSW,248,1.1,2.5,72,0.00,,,0.00,WUHU216HW,2013-08-31 10:37:00,
2013-08-31 05:42:00,78.1,68.3,29.94,WSW,248,1.8,3.1,72,0.00,,,0.00,WUHU216HW,2013-08-31 10:42:00,
2013-08-31 05:47:00,78.1,68.8,29.94,SW,225,2.2,3.1,73,0.00,,,0.00,WUHU216HW,2013-08-31 10:47:00,
2013-08-31 05:52:00,77.9,68.2,29.94,WSW,248,0.2,2.7,72,0.00,,,0.00,WUHU216HW,2013-08-31 10:52:00,
2013-08-31 05:57:00,77.9,68.6,29.94,WSW,248,0.0,2.2,73,0.00,,,0.00,WUHU216HW,2013-08-31 10:57:00,
2013-08-31 06:02:00,77.9,68.6,29.94,SSW,203,0.0,0.7,73,0.00,,,0.00,WUHU216HW,2013-08-31 11:02:00,
2013-08-31 06:07:00,77.8,68.4,29.94,SW,225,0.2,1.1,73,0.00,,,0.00,WUHU216HW,2013-08-31 11:07:00,
2013-08-31 06:12:00,77.8,68.4,29.95,SW,225,0.0,1.1,73,0.00,,,0.00,WUHU216HW,2013-08-31 11:12:00,
2013-08-31 06:17:00,77.8,68.4,29.95,SSE,158,0.4,1.1,73,0.00,,,0.00,WUHU216HW,2013-08-31 11:17:00,
2013-08-31 06:22:00,77.6,68.2,29.95,SSE,158,1.3,2.0,73,0.00,,,0.00,WUHU216HW,2013-08-31 11:22:00,
2013-08-31 06:27:00,77.6,68.2,29.94,SSE,158,0.4,2.0,73,0.00,,,0.00,WUHU216HW,2013-08-31 11:27:00,
2013-08-31 06:32:00,77.6,68.2,29.95,SSW,203,0.4,1.6,73,0.00,,,0.00,WUHU216HW,2013-08-31 11:32:00,
2013-08-31 06:37:00,77.6,68.2,29.95,West,270,1.8,1.8,73,0.00,,,0.00,WUHU216HW,2013-08-31 11:37:00,
2013-08-31 06:42:00,77.4,68.0,29.95,WSW,248,0.7,1.8,73,0.00,,,0.00,WUHU216HW,2013-08-31 11:42:00,
2013-08-31 06:47:00,77.2,67.9,29.96,West,270,1.8,2.5,73,0.00,,,0.00,WUHU216HW,2013-08-31 11:47:00,
2013-08-31 06:52:00,77.2,68.3,29.96,SSE,158,0.4,2.5,74,0.00,,,0.00,WUHU216HW,2013-08-31 11:52:00,
2013-08-31 06:57:00,77.2,68.3,29.95,SSE,158,0.0,2.0,74,0.00,,,0.00,WUHU216HW,2013-08-31 11:57:00,
2013-08-31 07:02:00,77.2,68.3,29.95,SSW,203,0.4,1.3,74,0.00,,,0.00,WUHU216HW,2013-08-31 12:02:00,
2013-08-31 07:07:00,77.2,68.3,29.95,SW,225,1.1,1.8,74,0.00,,,0.00,WUHU216HW,2013-08-31 12:07:00,
2013-08-31 07:12:00,77.0,68.5,29.95,South,180,1.3,1.8,75,0.00,,,0.00,WUHU216HW,2013-08-31 12:12:00,
2013-08-31 07:17:00,77.0,68.5,29.95,West,270,0.4,1.3,75,0.00,,,0.00,WUHU216HW,2013-08-31 12:17:00,
2013-08-31 07:22:00,77.0,68.5,29.95,SSW,203,1.8,2.7,75,0.00,,,0.00,WUHU216HW,2013-08-31 12:22:00,
2013-08-31 07:27:00,77.2,68.7,29.95,WSW,248,1.3,2.7,75,0.00,,,0.00,WUHU216HW,2013-08-31 12:27:00,
2013-08-31 07:32:00,77.2,68.7,29.95,SW,225,1.1,1.6,75,0.00,,,0.00,WUHU216HW,2013-08-31 12:32:00,
2013-08-31 07:37:00,77.2,68.7,29.95,West,270,0.9,2.2,75,0.00,,,0.00,WUHU216HW,2013-08-31 12:37:00,
2013-08-31 07:42:00,77.4,68.9,29.96,West,270,0.9,2.2,75,0.00,,,0.00,WUHU216HW,2013-08-31 12:42:00,
2013-08-31 07:47:00,77.4,68.9,29.96,SW,225,2.0,2.9,75,0.00,,,0.00,WUHU216HW,2013-08-31 12:47:00,
2013-08-31 07:52:00,77.6,69.0,29.96,WSW,248,1.6,2.9,75,0.00,,,0.00,WUHU216HW,2013-08-31 12:52:00,
2013-08-31 07:57:00,77.8,68.8,29.96,NW,315,2.9,3.4,74,0.00,,,0.00,WUHU216HW,2013-08-31 12:57:00,
2013-08-31 08:02:00,77.9,68.9,29.96,WSW,248,0.7,3.4,74,0.00,,,0.00,WUHU216HW,2013-08-31 13:02:00,
2013-08-31 08:07:00,78.1,69.1,29.95,South,180,0.4,4.0,74,0.00,,,0.00,WUHU216HW,2013-08-31 13:07:00,
2013-08-31 08:12:00,78.3,69.3,29.96,SW,225,1.3,4.0,74,0.00,,,0.00,WUHU216HW,2013-08-31 13:12:00,
2013-08-31 08:17:00,78.3,69.0,29.96,WSW,248,1.3,2.9,73,0.00,,,0.00,WUHU216HW,2013-08-31 13:17:00,
2013-08-31 08:22:00,78.5,69.0,29.96,WSW,248,1.1,2.9,73,0.00,,,0.00,WUHU216HW,2013-08-31 13:22:00,
2013-08-31 08:27:00,78.7,69.2,29.96,NE,45,0.2,2.9,73,0.00,,,0.00,WUHU216HW,2013-08-31 13:27:00,
2013-08-31 08:32:00,78.7,69.2,29.96,SSW,203,0.7,1.6,73,0.00,,,0.00,WUHU216HW,2013-08-31 13:32:00,
2013-08-31 08:37:00,78.7,69.2,29.95,WSW,248,1.1,1.6,73,0.00,,,0.00,WUHU216HW,2013-08-31 13:37:00,
2013-08-31 08:42:00,78.7,69.2,29.95,WSW,248,0.9,1.6,73,0.00,,,0.00,WUHU216HW,2013-08-31 13:42:00,
2013-08-31 08:47:00,78.8,69.4,29.95,SSE,158,2.7,2.7,73,0.00,,,0.00,WUHU216HW,2013-08-31 13:47:00,
2013-08-31 08:52:00,79.0,69.6,29.95,SW,225,1.1,2.7,73,0.00,,,0.00,WUHU216HW,2013-08-31 13:52:00,
2013-08-31 08:57:00,79.2,69.8,29.95,SE,135,0.9,2.5,73,0.00,,,0.00,WUHU216HW,2013-08-31 13:57:00,
2013-08-31 09:02:00,79.4,69.9,29.95,West,270,1.1,3.4,73,0.00,,,0.00,WUHU216HW,2013-08-31 14:02:00,
2013-08-31 09:07:00,79.7,69.9,29.96,WSW,248,1.1,3.4,72,0.00,,,0.00,WUHU216HW,2013-08-31 14:07:00,
2013-08-31 09:12:00,79.9,70.1,29.96,SSE,158,2.0,4.0,72,0.00,,,0.00,WUHU216HW,2013-08-31 14:12:00,
2013-08-31 09:17:00,80.3,70.0,29.96,WSW,248,2.0,5.1,71,0.00,,,0.00,WUHU216HW,2013-08-31 14:17:00,
2013-08-31 09:22:00,80.6,70.4,29.96,WSW,248,0.7,5.1,71,0.00,,,0.00,WUHU216HW,2013-08-31 14:22:00,
2013-08-31 09:27:00,81.0,70.7,29.96,WSW,248,1.8,6.3,71,0.00,,,0.00,WUHU216HW,2013-08-31 14:27:00,
2013-08-31 09:32:00,81.4,70.7,29.96,NNW,338,1.3,6.5,70,0.00,,,0.00,WUHU216HW,2013-08-31 14:32:00,
2013-08-31 09:37:00,81.7,71.0,29.96,WSW,248,1.8,6.5,70,0.00,,,0.00,WUHU216HW,2013-08-31 14:37:00,
2013-08-31 09:42:00,81.9,70.8,29.96,WSW,248,4.7,5.6,69,0.00,,,0.00,WUHU216HW,2013-08-31 14:42:00,
2013-08-31 09:47:00,82.3,70.6,29.96,WSW,248,4.0,7.6,68,0.00,,,0.00,WUHU216HW,2013-08-31 14:47:00,
2013-08-31 09:52:00,82.6,70.9,29.97,SW,225,4.7,7.6,68,0.00,,,0.00,WUHU216HW,2013-08-31 14:52:00,
2013-08-31 09:57:00,82.8,71.1,29.98,West,270,2.2,5.8,68,0.00,,,0.00,WUHU216HW,2013-08-31 14:57:00,
2013-08-31 10:02:00,83.2,71.5,29.97,NW,315,2.0,5.8,68,0.00,,,0.00,WUHU216HW,2013-08-31 15:02:00,
2013-08-31 10:07:00,83.2,71.5,29.97,West,270,1.8,4.7,68,0.00,,,0.00,WUHU216HW,2013-08-31 15:07:00,
2013-08-31 10:12:00,83.5,71.4,29.97,NNE,23,1.6,3.6,67,0.00,,,0.00,WUHU216HW,2013-08-31 15:12:00,
2013-08-31 10:17:00,83.5,71.4,29.97,NW,315,3.4,4.0,67,0.00,,,0.00,WUHU216HW,2013-08-31 15:17:00,
2013-08-31 10:22:00,83.7,71.6,29.97,NW,315,1.1,4.7,67,0.00,,,0.00,WUHU216HW,2013-08-31 15:22:00,
2013-08-31 10:27:00,83.9,71.7,29.97,NNW,338,3.1,4.7,67,0.00,,,0.00,WUHU216HW,2013-08-31 15:27:00,
2013-08-31 10:32:00,84.1,71.9,29.96,SW,225,1.8,3.1,67,0.00,,,0.00,WUHU216HW,2013-08-31 15:32:00,
2013-08-31 10:37:00,84.2,72.1,29.97,NE,45,1.8,4.3,67,0.00,,,0.00,WUHU216HW,2013-08-31 15:37:00,
2013-08-31 10:42:00,84.6,72.5,29.96,NNW,338,2.0,4.3,67,0.00,,,0.00,WUHU216HW,2013-08-31 15:42:00,
2013-08-31 10:47:00,85.0,72.8,29.97,NNW,338,2.0,2.9,67,0.00,,,0.00,WUHU216HW,2013-08-31 15:47:00,
2013-08-31 10:52:00,85.1,73.0,29.96,NNE,23,2.7,3.8,67,0.00,,,0.00,WUHU216HW,2013-08-31 15:52:00,
2013-08-31 10:57:00,85.5,73.4,29.96,North,0,1.3,3.8,67,0.00,,,0.00,WUHU216HW,2013-08-31 15:57:00,
2013-08-31 11:02:00,85.7,73.5,29.95,WNW,293,0.9,2.7,67,0.00,,,0.00,WUHU216HW,2013-08-31 16:02:00,
2013-08-31 11:07:00,85.7,73.5,29.95,NNE,23,1.6,2.5,67,0.00,,,0.00,WUHU216HW,2013-08-31 16:07:00,
2013-08-31 11:12:00,85.9,73.6,29.95,NNE,23,3.4,3.4,67,0.00,,,0.00,WUHU216HW,2013-08-31 16:12:00,
2013-08-31 11:17:00,86.0,73.8,29.95,North,0,1.1,4.9,67,0.00,,,0.00,WUHU216HW,2013-08-31 16:17:00,
2013-08-31 11:22:00,86.2,74.0,29.95,NNW,338,1.1,4.9,67,0.00,,,0.00,WUHU216HW,2013-08-31 16:22:00,
2013-08-31 11:27:00,86.4,74.2,29.95,NNW,338,2.2,4.9,67,0.00,,,0.00,WUHU216HW,2013-08-31 16:27:00,
2013-08-31 11:32:00,86.6,74.4,29.94,NE,45,0.2,4.9,67,0.00,,,0.00,WUHU216HW,2013-08-31 16:32:00,
2013-08-31 11:37:00,86.8,74.5,29.94,ESE,113,0.4,3.4,67,0.00,,,0.00,WUHU216HW,2013-08-31 16:37:00,
2013-08-31 11:42:00,86.9,74.7,29.94,North,0,0.9,2.7,67,0.00,,,0.00,WUHU216HW,2013-08-31 16:42:00,
2013-08-31 11:47:00,86.9,74.7,29.94,NNE,23,1.8,3.4,67,0.00,,,0.00,WUHU216HW,2013-08-31 16:47:00,
2013-08-31 11:52:00,87.1,74.9,29.94,NNW,338,0.7,3.4,67,0.00,,,0.00,WUHU216HW,2013-08-31 16:52:00,
2013-08-31 11:57:00,87.1,74.9,29.94,NNW,338,1.1,2.5,67,0.00,,,0.00,WUHU216HW,2013-08-31 16:57:00,
2013-08-31 12:02:00,87.1,74.9,29.94,SE,135,3.4,3.4,67,0.00,,,0.00,WUHU216HW,2013-08-31 17:02:00,
2013-08-31 12:07:00,87.1,74.9,29.94,ESE,113,1.8,3.6,67,0.00,,,0.00,WUHU216HW,2013-08-31 17:07:00,
2013-08-31 12:12:00,87.1,74.9,29.93,NNE,23,2.9,3.6,67,0.00,,,0.00,WUHU216HW,2013-08-31 17:12:00,
2013-08-31 12:17:00,87.1,74.9,29.94,NNE,23,1.1,3.4,67,0.00,,,0.00,WUHU216HW,2013-08-31 17:17:00,
2013-08-31 12:22:00,87.3,75.0,29.94,NNW,338,0.4,3.4,67,0.00,,,0.00,WUHU216HW,2013-08-31 17:22:00,
2013-08-31 12:27:00,87.3,75.0,29.94,ESE,113,1.1,3.4,67,0.00,,,0.00,WUHU216HW,2013-08-31 17:27:00,
2013-08-31 12:32:00,87.3,75.0,29.94,ESE,113,1.8,3.4,67,0.00,,,0.00,WUHU216HW,2013-08-31 17:32:00,
2013-08-31 12:37:00,87.1,74.9,29.94,ESE,113,1.1,2.7,67,0.00,,,0.00,WUHU216HW,2013-08-31 17:37:00,
2013-08-31 12:42:00,87.3,75.4,29.94,ENE,68,1.3,2.5,68,0.00,,,0.00,WUHU216HW,2013-08-31 17:42:00,
2013-08-31 12:47:00,87.3,75.4,29.93,SE,135,0.9,3.6,68,0.00,,,0.00,WUHU216HW,2013-08-31 17:47:00,
2013-08-31 12:52:00,87.1,75.3,29.93,ESE,113,0.7,3.6,68,0.00,,,0.00,WUHU216HW,2013-08-31 17:52:00,
2013-08-31 12:57:00,87.3,75.0,29.93,SSE,158,0.0,3.4,67,0.00,,,0.00,WUHU216HW,2013-08-31 17:57:00,
2013-08-31 13:02:00,87.5,75.2,29.93,NE,45,0.4,2.2,67,0.00,,,0.00,WUHU216HW,2013-08-31 18:02:00,
2013-08-31 13:07:00,87.5,75.6,29.94,North,0,0.0,2.2,68,0.00,,,0.00,WUHU216HW,2013-08-31 18:07:00,
2013-08-31 13:12:00,87.7,75.8,29.93,SE,135,0.7,1.1,68,0.00,,,0.00,WUHU216HW,2013-08-31 18:12:00,
2013-08-31 13:17:00,87.7,75.3,29.93,SSE,158,0.9,1.8,67,0.00,,,0.00,WUHU216HW,2013-08-31 18:17:00,
2013-08-31 13:22:00,87.8,76.0,29.94,ESE,113,0.4,3.4,68,0.00,,,0.00,WUHU216HW,2013-08-31 18:22:00,
2013-08-31 13:27:00,87.8,75.5,29.94,ESE,113,1.1,3.4,67,0.00,,,0.00,WUHU216HW,2013-08-31 18:27:00,
2013-08-31 13:32:00,87.8,75.5,29.94,ESE,113,0.0,3.1,67,0.00,,,0.00,WUHU216HW,2013-08-31 18:32:00,
2013-08-31 13:37:00,87.8,75.5,29.94,NE,45,0.4,1.1,67,0.00,,,0.00,WUHU216HW,2013-08-31 18:37:00,
2013-08-31 13:42:00,87.8,75.5,29.94,NE,45,0.4,1.3,67,0.00,,,0.00,WUHU216HW,2013-08-31 18:42:00,
2013-08-31 13:47:00,87.8,75.5,29.95,NNW,338,1.1,1.3,67,0.00,,,0.00,WUHU216HW,2013-08-31 18:47:00,
2013-08-31 13:52:00,87.7,75.3,29.95,North,0,1.8,2.7,67,0.00,,,0.00,WUHU216HW,2013-08-31 18:52:00,
2013-08-31 13:57:00,87.5,75.2,29.95,NNW,338,1.1,2.7,67,0.00,,,0.00,WUHU216HW,2013-08-31 18:57:00,
2013-08-31 14:02:00,87.5,75.2,29.94,NNE,23,0.4,3.4,67,0.00,,,0.00,WUHU216HW,2013-08-31 19:02:00,
2013-08-31 14:07:00,87.3,75.0,29.94,WNW,293,1.8,4.0,67,0.00,,,0.00,WUHU216HW,2013-08-31 19:07:00,
2013-08-31 14:12:00,87.1,74.9,29.94,WNW,293,0.4,4.0,67,0.00,,,0.00,WUHU216HW,2013-08-31 19:12:00,
2013-08-31 14:17:00,87.1,74.9,29.94,North,0,0.4,1.8,67,0.00,,,0.00,WUHU216HW,2013-08-31 19:17:00,
2013-08-31 14:22:00,87.1,74.9,29.94,North,0,0.4,2.9,67,0.00,,,0.00,WUHU216HW,2013-08-31 19:22:00,
2013-08-31 14:27:00,87.1,74.9,29.94,NNW,338,0.0,2.9,67,0.00,,,0.00,WUHU216HW,2013-08-31 19:27:00,
2013-08-31 14:32:00,87.3,75.0,29.94,NNW,338,1.1,1.3,67,0.00,,,0.00,WUHU216HW,2013-08-31 19:32:00,
2013-08-31 14:37:00,87.1,74.9,29.94,North,0,0.0,1.3,67,0.00,,,0.00,WUHU216HW,2013-08-31 19:37:00,
2013-08-31 14:42:00,87.1,74.9,29.94,NNW,338,0.0,1.1,67,0.00,,,0.00,WUHU216HW,2013-08-31 19:42:00,
2013-08-31 14:47:00,86.9,74.7,29.93,NNE,23,0.7,0.7,67,0.00,,,0.00,WUHU216HW,2013-08-31 19:47:00,
2013-08-31 14:52:00,86.8,74.5,29.94,WSW,248,1.1,1.1,67,0.00,,,0.00,WUHU216HW,2013-08-31 19:52:00,
2013-08-31 14:57:00,86.6,74.4,29.94,WSW,248,0.2,1.1,67,0.00,,,0.00,WUHU216HW,2013-08-31 19:57:00,
2013-08-31 15:02:00,86.4,74.6,29.93,ESE,113,1.3,1.3,68,0.00,,,0.00,WUHU216HW,2013-08-31 20:02:00,
2013-08-31 15:07:00,86.0,74.4,29.93,SW,225,1.3,1.3,68,0.00,,,0.00,WUHU216HW,2013-08-31 20:07:00,
2013-08-31 15:12:00,85.9,74.6,29.93,SW,225,2.0,2.2,69,0.00,,,0.00,WUHU216HW,2013-08-31 20:12:00,
2013-08-31 15:17:00,85.9,74.6,29.93,SSE,158,1.6,2.2,69,0.00,,,0.00,WUHU216HW,2013-08-31 20:17:00,
2013-08-31 15:22:00,85.7,74.4,29.93,ESE,113,0.9,2.0,69,0.00,,,0.00,WUHU216HW,2013-08-31 20:22:00,
2013-08-31 15:27:00,85.7,74.4,29.93,South,180,1.8,2.0,69,0.00,,,0.00,WUHU216HW,2013-08-31 20:27:00,
2013-08-31 15:32:00,85.5,74.3,29.92,SW,225,0.7,2.7,69,0.00,,,0.00,WUHU216HW,2013-08-31 20:32:00,
2013-08-31 15:37:00,85.3,74.1,29.92,SE,135,1.3,2.9,69,0.00,,,0.00,WUHU216HW,2013-08-31 20:37:00,
2013-08-31 15:42:00,85.3,74.1,29.91,SE,135,0.2,2.9,69,0.00,,,0.00,WUHU216HW,2013-08-31 20:42:00,
2013-08-31 15:47:00,85.1,73.9,29.91,ESE,113,1.1,3.4,69,0.00,,,0.00,WUHU216HW,2013-08-31 20:47:00,
2013-08-31 15:52:00,85.1,73.0,29.91,ENE,68,0.4,3.4,67,0.00,,,0.00,WUHU216HW,2013-08-31 20:52:00,
2013-08-31 15:57:00,85.1,73.0,29.90,ENE,68,0.0,2.2,67,0.00,,,0.00,WUHU216HW,2013-08-31 20:57:00,
2013-08-31 16:02:00,85.3,72.7,29.90,SE,135,0.7,1.8,66,0.00,,,0.00,WUHU216HW,2013-08-31 21:02:00,
2013-08-31 16:07:00,85.5,72.8,29.90,SE,135,0.0,1.8,66,0.00,,,0.00,WUHU216HW,2013-08-31 21:07:00,
2013-08-31 16:12:00,85.7,73.0,29.90,NE,45,1.6,1.8,66,0.00,,,0.00,WUHU216HW,2013-08-31 21:12:00,
2013-08-31 16:17:00,85.9,73.2,29.90,ESE,113,1.3,3.4,66,0.00,,,0.00,WUHU216HW,2013-08-31 21:17:00,
2013-08-31 16:22:00,86.0,72.9,29.90,WSW,248,0.2,3.4,65,0.00,,,0.00,WUHU216HW,2013-08-31 21:22:00,
2013-08-31 16:27:00,86.4,72.8,29.90,SE,135,0.7,2.9,64,0.00,,,0.00,WUHU216HW,2013-08-31 21:27:00,
2013-08-31 16:32:00,86.8,72.2,29.90,SE,135,0.0,1.8,62,0.00,,,0.00,WUHU216HW,2013-08-31 21:32:00,
2013-08-31 16:37:00,87.3,72.3,29.89,SSW,203,0.9,2.2,61,0.00,,,0.00,WUHU216HW,2013-08-31 21:37:00,
2013-08-31 16:42:00,87.7,71.1,29.90,SSW,203,0.4,2.2,58,0.00,,,0.00,WUHU216HW,2013-08-31 21:42:00,
2013-08-31 16:47:00,88.0,70.9,29.90,South,180,0.0,1.8,57,0.00,,,0.00,WUHU216HW,2013-08-31 21:47:00,
2013-08-31 16:52:00,88.2,71.1,29.90,South,180,0.0,1.8,57,0.00,,,0.00,WUHU216HW,2013-08-31 21:52:00,
2013-08-31 16:57:00,88.2,71.1,29.90,SSW,203,0.4,0.7,57,0.00,,,0.00,WUHU216HW,2013-08-31 21:57:00,
2013-08-31 17:02:00,88.4,71.2,29.90,North,0,0.0,1.1,57,0.00,,,0.00,WUHU216HW,2013-08-31 22:02:00,
2013-08-31 17:07:00,88.4,71.2,29.90,NW,315,1.1,1.1,57,0.00,,,0.00,WUHU216HW,2013-08-31 22:07:00,
2013-08-31 17:12:00,88.7,71.0,29.90,SW,225,0.9,1.6,56,0.00,,,0.00,WUHU216HW,2013-08-31 22:12:00,
2013-08-31 17:17:00,88.9,71.2,29.90,WSW,248,1.6,2.5,56,0.00,,,0.00,WUHU216HW,2013-08-31 22:17:00,
2013-08-31 17:22:00,89.1,71.4,29.90,North,0,0.2,2.5,56,0.00,,,0.00,WUHU216HW,2013-08-31 22:22:00,
2013-08-31 17:27:00,89.1,70.8,29.90,WSW,248,0.9,1.6,55,0.00,,,0.00,WUHU216HW,2013-08-31 22:27:00,
2013-08-31 17:32:00,89.1,71.4,29.90,WSW,248,0.4,1.1,56,0.00,,,0.00,WUHU216HW,2013-08-31 22:32:00,
2013-08-31 17:37:00,88.9,71.2,29.90,WNW,293,0.2,1.1,56,0.00,,,0.00,WUHU216HW,2013-08-31 22:37:00,
2013-08-31 17:42:00,88.9,71.2,29.90,WSW,248,0.4,1.1,56,0.00,,,0.00,WUHU216HW,2013-08-31 22:42:00,
2013-08-31 17:47:00,88.9,71.7,29.90,WSW,248,0.4,1.1,57,0.00,,,0.00,WUHU216HW,2013-08-31 22:47:00,
2013-08-31 17:52:00,88.9,71.7,29.90,WSW,248,0.0,1.1,57,0.00,,,0.00,WUHU216HW,2013-08-31 22:52:00,
2013-08-31 17:57:00,88.6,71.4,29.90,SW,225,0.0,1.1,57,0.00,,,0.00,WUHU216HW,2013-08-31 22:57:00,
2013-08-31 18:02:00,88.4,71.2,29.90,SW,225,0.0,1.1,57,0.00,,,0.00,WUHU216HW,2013-08-31 23:02:00,
2013-08-31 18:07:00,88.2,71.1,29.90,SW,225,0.0,0.4,57,0.00,,,0.00,WUHU216HW,2013-08-31 23:07:00,
2013-08-31 18:12:00,88.0,70.9,29.90,SW,225,0.0,0.2,57,0.00,,,0.00,WUHU216HW,2013-08-31 23:12:00,
2013-08-31 18:17:00,87.8,71.3,29.90,SW,225,0.0,0.0,58,0.00,,,0.00,WUHU216HW,2013-08-31 23:17:00,
2013-08-31 18:22:00,87.7,70.6,29.90,SW,225,0.0,0.0,57,0.00,,,0.00,WUHU216HW,2013-08-31 23:22:00,
2013-08-31 18:27:00,87.7,70.6,29.90,SW,225,0.0,0.0,57,0.00,,,0.00,WUHU216HW,2013-08-31 23:27:00,
2013-08-31 18:32:00,87.5,70.9,29.90,SW,225,0.0,0.0,58,0.00,,,0.00,WUHU216HW,2013-08-31 23:32:00,
2013-08-31 18:37:00,87.5,70.9,29.90,SW,225,0.0,0.0,58,0.00,,,0.00,WUHU216HW,2013-08-31 23:37:00,
2013-08-31 18:42:00,87.3,71.3,29.90,SW,225,0.0,0.0,59,0.00,,,0.00,WUHU216HW,2013-08-31 23:42:00,
2013-08-31 18:47:00,87.1,71.1,29.90,SW,225,0.0,0.0,59,0.00,,,0.00,WUHU216HW,2013-08-31 23:47:00,
2013-08-31 18:52:00,86.9,70.9,29.90,SW,225,0.0,0.7,59,0.00,,,0.00,WUHU216HW,2013-08-31 23:52:00,
2013-08-31 18:57:00,86.8,70.7,29.90,SW,225,0.0,0.7,59,0.00,,,0.00,WUHU216HW,2013-08-31 23:57:00,
2013-08-31 19:02:00,86.6,70.6,29.90,SW,225,0.0,0.0,59,0.00,,,0.00,WUHU216HW,2013-09-01 00:02:00,
2013-08-31 19:07:00,86.6,71.1,29.89,SW,225,0.0,0.0,60,0.00,,,0.00,WUHU216HW,2013-09-01 00:07:00,
2013-08-31 19:12:00,86.4,70.4,29.89,SW,225,0.0,0.0,59,0.00,,,0.00,WUHU216HW,2013-09-01 00:12:00,
2013-08-31 19:17:00,86.2,70.7,29.90,West,270,0.2,0.9,60,0.00,,,0.00,WUHU216HW,2013-09-01 00:17:00,
2013-08-31 19:22:00,86.0,70.6,29.89,North,0,0.0,0.9,60,0.00,,,0.00,WUHU216HW,2013-09-01 00:22:00,
2013-08-31 19:27:00,85.9,70.4,29.89,North,0,0.0,0.4,60,0.00,,,0.00,WUHU216HW,2013-09-01 00:27:00,
2013-08-31 19:32:00,85.9,70.4,29.89,North,0,0.0,0.0,60,0.00,,,0.00,WUHU216HW,2013-09-01 00:32:00,
2013-08-31 19:37:00,85.5,70.6,29.89,North,0,0.0,0.0,61,0.00,,,0.00,WUHU216HW,2013-09-01 00:37:00,
2013-08-31 19:42:00,85.3,70.8,29.89,North,0,0.0,0.0,62,0.00,,,0.00,WUHU216HW,2013-09-01 00:42:00,
2013-08-31 19:47:00,85.1,70.7,29.89,North,0,0.0,0.0,62,0.00,,,0.00,WUHU216HW,2013-09-01 00:47:00,
2013-08-31 19:52:00,85.1,70.7,29.89,North,0,0.0,0.0,62,0.00,,,0.00,WUHU216HW,2013-09-01 00:52:00,
2013-08-31 19:57:00,84.8,70.8,29.89,North,0,0.0,0.0,63,0.00,,,0.00,WUHU216HW,2013-09-01 00:57:00,
2013-08-31 20:02:00,84.6,71.1,29.89,North,0,0.0,0.0,64,0.00,,,0.00,WUHU216HW,2013-09-01 01:02:00,
2013-08-31 20:07:00,84.2,70.7,29.89,North,0,0.0,0.0,64,0.00,,,0.00,WUHU216HW,2013-09-01 01:07:00,
2013-08-31 20:12:00,84.1,71.0,29.89,North,0,0.0,0.0,65,0.00,,,0.00,WUHU216HW,2013-09-01 01:12:00,
2013-08-31 20:17:00,83.9,70.8,29.89,North,0,0.0,0.0,65,0.00,,,0.00,WUHU216HW,2013-09-01 01:17:00,
2013-08-31 20:22:00,83.7,71.1,29.89,North,0,0.0,0.0,66,0.00,,,0.00,WUHU216HW,2013-09-01 01:22:00,
2013-08-31 20:27:00,83.7,71.1,29.90,North,0,0.0,0.0,66,0.00,,,0.00,WUHU216HW,2013-09-01 01:27:00,
2013-08-31 20:32:00,83.5,70.9,29.89,North,0,0.0,0.0,66,0.00,,,0.00,WUHU216HW,2013-09-01 01:32:00,
2013-08-31 20:37:00,83.3,71.2,29.89,North,0,0.0,0.0,67,0.00,,,0.00,WUHU216HW,2013-09-01 01:37:00,
2013-08-31 20:42:00,83.0,70.8,29.90,North,0,0.0,0.0,67,0.00,,,0.00,WUHU216HW,2013-09-01 01:42:00,
2013-08-31 20:47:00,82.8,70.7,29.90,North,0,0.0,0.0,67,0.00,,,0.00,WUHU216HW,2013-09-01 01:47:00,
2013-08-31 20:52:00,82.6,70.0,29.90,North,0,0.0,0.0,66,0.00,,,0.00,WUHU216HW,2013-09-01 01:52:00,
2013-08-31 20:57:00,82.4,69.8,29.90,North,0,0.0,0.2,66,0.00,,,0.00,WUHU216HW,2013-09-01 01:57:00,
2013-08-31 21:02:00,82.3,70.1,29.90,North,0,0.0,0.2,67,0.00,,,0.00,WUHU216HW,2013-09-01 02:02:00,
2013-08-31 21:07:00,82.1,69.9,29.90,North,0,0.0,0.0,67,0.00,,,0.00,WUHU216HW,2013-09-01 02:07:00,
2013-08-31 21:12:00,81.9,69.9,29.90,North,0,0.0,0.0,67,0.00,,,0.00,WUHU216HW,2013-09-01 02:12:00,
2013-08-31 21:17:00,81.7,70.1,29.90,North,0,0.0,0.4,68,0.00,,,0.00,WUHU216HW,2013-09-01 02:17:00,
2013-08-31 21:22:00,81.7,70.1,29.90,NNW,338,0.0,0.4,68,0.00,,,0.00,WUHU216HW,2013-09-01 02:22:00,
2013-08-31 21:27:00,81.5,69.9,29.91,NNW,338,0.0,0.0,68,0.00,,,0.00,WUHU216HW,2013-09-01 02:27:00,
2013-08-31 21:32:00,81.4,69.8,29.90,NNW,338,0.0,0.4,68,0.00,,,0.00,WUHU216HW,2013-09-01 02:32:00,
2013-08-31 21:37:00,81.4,69.8,29.90,NNW,338,0.0,0.4,68,0.00,,,0.00,WUHU216HW,2013-09-01 02:37:00,
2013-08-31 21:42:00,81.2,70.0,29.91,NNW,338,0.0,0.0,69,0.00,,,0.00,WUHU216HW,2013-09-01 02:42:00,
2013-08-31 21:47:00,81.0,69.9,29.91,NNW,338,0.0,0.0,69,0.00,,,0.00,WUHU216HW,2013-09-01 02:47:00,
2013-08-31 21:52:00,80.8,69.8,29.91,NNW,338,0.0,0.0,69,0.00,,,0.00,WUHU216HW,2013-09-01 02:52:00,
2013-08-31 21:57:00,80.8,69.8,29.91,NNW,338,0.0,0.0,69,0.00,,,0.00,WUHU216HW,2013-09-01 02:57:00,
2013-08-31 22:02:00,80.6,70.0,29.91,NNW,338,0.0,0.0,70,0.00,,,0.00,WUHU216HW,2013-09-01 03:02:00,
2013-08-31 22:07:00,80.5,69.8,29.91,NNW,338,0.0,0.0,70,0.00,,,0.00,WUHU216HW,2013-09-01 03:07:00,
2013-08-31 22:12:00,80.3,69.7,29.91,NNW,338,0.0,0.0,70,0.00,,,0.00,WUHU216HW,2013-09-01 03:12:00,
2013-08-31 22:17:00,80.3,69.7,29.91,NNW,338,0.0,0.0,70,0.00,,,0.00,WUHU216HW,2013-09-01 03:17:00,
2013-08-31 22:22:00,80.1,69.5,29.91,NNW,338,0.4,0.4,70,0.00,,,0.00,WUHU216HW,2013-09-01 03:22:00,
2013-08-31 22:27:00,79.9,69.7,29.91,NNW,338,0.0,0.4,71,0.00,,,0.00,WUHU216HW,2013-09-01 03:27:00,
2013-08-31 22:32:00,79.9,69.7,29.91,NNW,338,0.0,0.4,71,0.00,,,0.00,WUHU216HW,2013-09-01 03:32:00,
2013-08-31 22:37:00,79.7,69.5,29.91,NNW,338,0.0,0.0,71,0.00,,,0.00,WUHU216HW,2013-09-01 03:37:00,
2013-08-31 22:42:00,79.6,69.3,29.91,NNW,338,0.0,0.0,71,0.00,,,0.00,WUHU216HW,2013-09-01 03:42:00,
2013-08-31 22:47:00,79.6,69.8,29.91,NNW,338,0.0,0.0,72,0.00,,,0.00,WUHU216HW,2013-09-01 03:47:00,
2013-08-31 22:52:00,79.4,69.6,29.91,NNW,338,0.0,0.0,72,0.00,,,0.00,WUHU216HW,2013-09-01 03:52:00,
2013-08-31 22:57:00,79.2,69.4,29.91,NNW,338,0.0,0.0,72,0.00,,,0.00,WUHU216HW,2013-09-01 03:57:00,
2013-08-31 23:01:00,79.0,69.2,29.91,NNW,338,0.0,0.0,72,0.00,,,0.00,WUHU216HW,2013-09-01 04:01:00,
2013-08-31 23:02:00,79.0,69.2,29.91,NNW,338,0.0,0.0,72,0.00,,,0.00,WUHU216HW,2013-09-01 04:02:00,
2013-08-31 23:07:00,78.8,69.4,29.91,NNW,338,0.0,0.0,73,0.00,,,0.00,WUHU216HW,2013-09-01 04:07:00,
2013-08-31 23:12:00,78.8,69.4,29.91,NNW,338,0.0,0.0,73,0.00,,,0.00,WUHU216HW,2013-09-01 04:12:00,
2013-08-31 23:17:00,78.7,69.2,29.90,NNW,338,0.0,0.0,73,0.00,,,0.00,WUHU216HW,2013-09-01 04:17:00,
2013-08-31 23:22:00,78.5,69.0,29.90,NNW,338,0.0,0.0,73,0.00,,,0.00,WUHU216HW,2013-09-01 04:22:00,
2013-08-31 23:27:00,78.5,69.5,29.90,NNW,338,0.0,0.0,74,0.00,,,0.00,WUHU216HW,2013-09-01 04:27:00,
2013-08-31 23:32:00,78.5,69.5,29.90,NNW,338,0.0,0.0,74,0.00,,,0.00,WUHU216HW,2013-09-01 04:32:00,
2013-08-31 23:37:00,78.3,69.3,29.90,NNW,338,0.0,0.0,74,0.00,,,0.00,WUHU216HW,2013-09-01 04:37:00,
2013-08-31 23:42:00,78.1,69.1,29.90,NNW,338,0.0,0.0,74,0.00,,,0.00,WUHU216HW,2013-09-01 04:42:00,
2013-08-31 23:47:00,78.1,69.1,29.90,NNW,338,0.0,0.0,74,0.00,,,0.00,WUHU216HW,2013-09-01 04:47:00,
2013-08-31 23:52:00,78.1,69.5,29.90,NNW,338,0.0,0.0,75,0.00,,,0.00,WUHU216HW,2013-09-01 04:52:00,
2013-08-31 23:57:00,77.9,69.3,29.90,NNW,338,0.0,0.0,75,0.00,,,0.00,WUHU216HW,2013-09-01 04:57:00,